Date_and_time,latitude,longitude,wind_speed,RelWindDirFrom,WindDirFrom,air_pressure,air_temperature,relative_humidity,Temp,platform_speed_wrt_ground,air_pressure_at_mean_sea_level,platform_orientation
2019-11-29 23:50,50.6304533333333,-96.9807683333333,7.8,9.5,99,997.02,-2.6,91,1.12,0.0,1025.43,311.7
2019-11-30 00:00,50.6304533333333,-96.9807683333333,6.8,8.1,92,996.94,-2.6,90,1.12,0.0,1025.34,90.0
2019-11-30 00:10,50.6304533333333,-96.9807666666667,7.5,9.7,89,996.86,-2.6,90,1.11,0.0,1025.26,90.0
2019-11-30 00:20,50.6304516666667,-96.9807716666667,7.6,9.4,86,996.75,-2.5,91,1.12,0.0,1025.14,90.0
2019-11-30 00:30,50.6304633333333,-96.980765,7.6,9.3,86,996.59,-2.5,91,1.11,0.0,1024.98,90.0
2019-11-30 00:40,50.63046,-96.98076,6.7,7.8,85,996.65,-2.5,91,1.10,0.0,1025.04,90.0
2019-11-30 00:50,50.6304583333333,-96.980775,7.8,9.8,85,996.61,-2.4,92,1.10,0.0,1024.99,90.0
2019-11-30 01:00,50.6304533333333,-96.9807633333333,9.4,10.9,83,996.49,-2.5,91,1.10,0.0,1024.87,90.0
2019-11-30 01:10,50.6304533333333,-96.9807633333333,9.3,10.7,85,996.57,-2.5,91,1.10,0.0,1024.95,90.0
2019-11-30 01:20,50.6304533333333,-96.98076,9.1,10.8,85,996.57,-2.5,91,1.09,0.0,1024.95,90.0
2019-11-30 01:30,50.630455,-96.98076,9.6,11.4,85,996.43,-2.4,91,1.07,0.0,1024.80,90.0
2019-11-30 01:40,50.6304566666667,-96.9807616666667,9.8,11.7,87,996.37,-2.4,91,1.05,0.0,1024.73,90.0
2019-11-30 01:50,50.6304566666667,-96.980765,9.0,10.9,90,996.27,-2.4,92,1.03,0.0,1024.63,90.0
2019-11-30 02:00,50.6304566666667,-96.980765,9.0,11.0,90,996.21,-2.3,91,1.01,0.0,1024.57,0.0
2019-11-30 02:10,50.6304566666667,-96.9807666666667,8.9,10.6,91,996.08,-2.3,91,1.00,0.0,1024.43,0.0
2019-11-30 02:20,50.6304566666667,-96.9807666666667,8.3,10.3,90,995.98,-2.3,92,1.00,0.0,1024.32,0.0
2019-11-30 02:30,50.630455,-96.9807683333333,8.4,10.6,89,996.01,-2.3,92,0.99,0.0,1024.35,0.0
2019-11-30 02:40,50.6304533333333,-96.9807716666667,8.1,9.9,94,996.04,-2.2,92,0.98,0.0,1024.37,0.0
2019-11-30 02:50,50.6304516666667,-96.9807716666667,8.4,10.5,95,995.95,-2.2,92,0.97,0.0,1024.28,0.0
2019-11-30 03:00,50.6304633333333,-96.98077,9.1,10.7,98,995.83,-2.2,93,0.96,0.0,1024.17,360.0
2019-11-30 03:10,50.6304583333333,-96.9807716666667,8.8,10.6,99,995.78,-2.2,92,0.94,0.0,1024.11,360.0
2019-11-30 03:20,50.6304566666667,-96.98076,8.0,9.8,100,995.76,-2.1,93,0.94,0.0,1024.08,360.0
2019-11-30 03:30,50.6304583333333,-96.98076,8.2,9.9,101,995.69,-2.1,93,0.94,0.0,1024.01,360.0
2019-11-30 03:40,50.6304583333333,-96.98076,7.8,9.3,100,995.66,-2.1,93,0.94,0.0,1023.97,360.0
2019-11-30 03:50,50.6304566666667,-96.98076,7.8,9.3,102,995.64,-2.1,93,0.93,0.0,1023.95,360.0
2019-11-30 04:00,50.630455,-96.9807583333333,6.5,8.3,104,995.71,-2.1,94,0.92,0.0,1024.03,90.0
2019-11-30 04:10,50.630455,-96.98076,5.2,7.2,108,995.85,-2.1,94,0.92,0.0,1024.16,90.0
2019-11-30 04:20,50.6304466666667,-96.9807633333333,4.1,5.2,114,995.91,-2.0,95,0.93,0.0,1024.22,90.0
2019-11-30 04:30,50.6304533333333,-96.9807616666667,4.6,6.2,106,995.86,-2.0,95,0.95,0.0,1024.17,90.0
2019-11-30 04:40,50.630435,-96.9807466666667,4.7,5.6,102,995.67,-1.9,94,0.97,0.0,1023.96,90.0
2019-11-30 04:50,50.6304483333333,-96.9807483333333,4.7,6.5,98,995.53,-1.8,94,0.98,0.0,1023.82,90.0
2019-11-30 05:00,50.6304633333333,-96.980785,4.5,5.8,90,995.44,-1.8,94,0.98,0.0,1023.72,317.2
2019-11-30 05:10,50.63045,-96.9807583333333,4.9,6.1,86,995.44,-1.8,95,0.98,0.0,1023.72,317.2
2019-11-30 05:20,50.6304483333333,-96.9807533333333,4.9,6.0,84,995.33,-1.8,95,0.99,0.0,1023.60,317.2
2019-11-30 05:30,50.6304233333333,-96.98073,5.1,6.3,87,995.19,-1.8,95,0.97,0.0,1023.47,317.2
2019-11-30 05:40,50.6304433333333,-96.980765,5.9,7.2,85,995.11,-1.8,94,0.96,0.0,1023.38,317.2
2019-11-30 05:50,50.6304483333333,-96.9807633333333,6.0,7.4,84,995.03,-1.7,95,0.94,0.0,1023.29,317.2
2019-11-30 06:00,50.63045,-96.9807633333333,6.0,7.2,82,994.99,-1.7,95,0.94,0.0,1023.25,360.0
2019-11-30 06:10,50.6304483333333,-96.9807616666667,5.9,7.2,82,994.89,-1.7,96,0.97,0.0,1023.15,360.0
2019-11-30 06:20,50.63045,-96.9807633333333,5.9,7.2,84,994.83,-1.7,95,0.97,0.0,1023.08,360.0
2019-11-30 06:30,50.63045,-96.9807616666667,5.8,6.8,84,994.72,-1.7,97,0.96,0.0,1022.97,360.0
2019-11-30 06:40,50.63045,-96.9807616666667,5.5,6.6,86,994.60,-1.7,97,0.96,0.0,1022.84,360.0
2019-11-30 06:50,50.6304516666667,-96.98076,5.4,6.5,86,994.55,-1.6,97,0.96,0.0,1022.78,360.0
2019-11-30 07:00,50.6304516666667,-96.9807616666667,6.0,7.3,86,994.45,-1.6,97,0.97,0.0,1022.67,90.0
2019-11-30 07:10,50.6304516666667,-96.98076,5.8,7.0,84,994.36,-1.6,98,0.96,0.0,1022.58,90.0
2019-11-30 07:20,50.6304533333333,-96.9807616666667,5.4,6.8,75,994.37,-1.6,98,0.96,0.0,1022.59,90.0
2019-11-30 07:30,50.6304533333333,-96.98076,6.0,6.9,74,994.40,-1.6,99,0.96,0.0,1022.62,90.0
2019-11-30 07:40,50.6304533333333,-96.9807583333333,5.7,6.9,70,994.31,-1.6,99,0.96,0.0,1022.53,90.0
2019-11-30 07:50,50.6304616666667,-96.98077,6.6,8.3,71,994.16,-1.6,99,0.96,0.0,1022.38,90.0
2019-11-30 08:00,50.6304583333333,-96.98077,6.8,8.8,68,994.20,-1.6,99,0.97,0.0,1022.41,113.6
2019-11-30 08:10,50.6304616666667,-96.98077,7.5,9.3,68,994.11,-1.6,99,0.97,0.0,1022.32,113.6
2019-11-30 08:20,50.63046,-96.9807683333333,7.5,9.6,71,994.14,-1.6,99,0.97,0.0,1022.35,113.6
2019-11-30 08:30,50.63046,-96.9807683333333,8.6,11.3,70,994.11,-1.6,99,0.94,0.0,1022.31,113.6
2019-11-30 08:40,50.63046,-96.9807666666667,10.2,12.1,71,994.01,-1.6,99,0.93,0.0,1022.22,113.6
2019-11-30 08:50,50.6304583333333,-96.9807683333333,10.8,13.0,75,994.07,-1.6,99,0.94,0.0,1022.27,113.6
2019-11-30 09:00,50.6304583333333,-96.9807366666667,11.3,13.3,78,994.11,-1.6,99,0.94,0.0,1022.31,73.2
2019-11-30 09:10,50.6304516666667,-96.9807583333333,11.6,13.7,81,994.11,-1.6,99,0.96,0.0,1022.31,73.2
2019-11-30 09:20,50.6304516666667,-96.9807616666667,10.7,12.6,79,994.10,-1.5,99,0.95,0.0,1022.31,73.2
2019-11-30 09:30,50.6304533333333,-96.9807633333333,11.3,13.5,81,994.01,-1.5,99,0.94,0.0,1022.21,73.2
2019-11-30 09:40,50.6304466666667,-96.9807333333333,11.0,13.7,83,993.93,-1.5,99,0.94,0.0,1022.13,73.2
2019-11-30 09:50,50.6305033333333,-96.980815,10.4,12.7,84,993.85,-1.5,99,0.95,0.0,1022.04,73.2
2019-11-30 10:00,50.6304583333333,-96.9807716666667,10.1,12.0,84,993.66,-1.5,99,0.95,0.0,1021.85,299.2
2019-11-30 10:10,50.6304383333333,-96.9807616666667,10.2,12.2,81,993.56,-1.5,99,0.95,0.0,1021.74,299.2
2019-11-30 10:20,50.6304483333333,-96.9807633333333,10.1,12.2,77,993.55,-1.5,99,0.95,0.0,1021.73,299.2
2019-11-30 10:30,50.630455,-96.9807666666667,10.3,12.9,76,993.48,-1.5,99,0.96,0.0,1021.66,299.2
2019-11-30 10:40,50.6304783333333,-96.9807816666667,9.8,11.6,77,993.45,-1.5,99,0.97,0.0,1021.63,299.2
2019-11-30 10:50,50.6304483333333,-96.9807633333333,10.3,12.2,72,993.41,-1.5,99,0.98,0.0,1021.60,299.2
2019-11-30 11:00,50.63045,-96.98077,10.4,12.3,72,993.38,-1.5,99,0.99,0.0,1021.56,142.0
2019-11-30 11:10,50.63046,-96.980775,9.8,11.7,66,993.33,-1.5,99,0.99,0.0,1021.51,142.0
2019-11-30 11:20,50.63045,-96.9807566666667,10.0,12.1,63,993.18,-1.6,99,1.00,0.0,1021.35,142.0
2019-11-30 11:30,50.6304483333333,-96.9807633333333,10.6,12.4,69,993.05,-1.6,99,1.00,0.0,1021.22,142.0
2019-11-30 11:40,50.63045,-96.9807583333333,11.2,13.1,74,992.99,-1.6,99,1.01,0.0,1021.16,142.0
2019-11-30 11:50,50.6304483333333,-96.98076,10.9,12.8,73,993.00,-1.6,99,1.01,0.0,1021.17,142.0
2019-11-30 12:00,50.6304483333333,-96.9807583333333,10.7,12.5,70,992.99,-1.6,99,1.00,0.0,1021.16,229.4
2019-11-30 12:10,50.63045,-96.9807783333333,10.6,12.3,65,992.86,-1.6,99,1.01,0.0,1021.03,229.4
2019-11-30 12:20,50.63045,-96.980765,11.3,13.6,70,992.78,-1.6,99,1.01,0.0,1020.94,229.4
2019-11-30 12:30,50.630445,-96.98077,12.5,14.9,73,992.62,-1.6,99,1.02,0.0,1020.77,229.4
2019-11-30 12:40,50.6304516666667,-96.98077,11.6,13.4,75,992.59,-1.6,99,1.01,0.0,1020.75,229.4
2019-11-30 12:50,50.6304533333333,-96.9807583333333,10.9,13.2,75,992.65,-1.6,99,1.02,0.0,1020.81,229.4
2019-11-30 13:00,50.6304533333333,-96.9807566666667,11.4,13.6,77,992.58,-1.6,99,1.03,0.0,1020.74,125.3
2019-11-30 13:10,50.6304516666667,-96.9807566666667,11.6,13.9,77,992.53,-1.6,99,1.04,0.0,1020.70,125.3
2019-11-30 13:20,50.6304516666667,-96.9807583333333,11.2,13.5,78,992.49,-1.6,99,1.04,0.0,1020.65,125.3
2019-11-30 13:30,50.6304533333333,-96.98076,11.2,13.3,78,992.43,-1.7,99,1.03,0.0,1020.59,125.3
2019-11-30 13:40,50.6304533333333,-96.9807616666667,11.6,13.7,84,992.41,-1.7,99,1.03,0.0,1020.57,125.3
2019-11-30 13:50,50.6304533333333,-96.9807616666667,11.3,13.6,81,992.50,-1.7,99,1.05,0.0,1020.67,125.3
2019-11-30 14:00,50.6304533333333,-96.9807766666667,11.4,13.6,80,992.58,-1.7,99,1.06,0.0,1020.75,270.0
2019-11-30 14:10,50.630455,-96.9807766666667,10.9,13.5,81,992.55,-1.7,99,1.07,0.0,1020.72,270.0
2019-11-30 14:20,50.630455,-96.98077,11.1,13.1,78,992.55,-1.8,99,1.08,0.0,1020.72,270.0
2019-11-30 14:30,50.6304566666667,-96.98077,10.9,12.9,81,992.59,-1.8,99,1.08,0.0,1020.76,270.0
2019-11-30 14:40,50.6304566666667,-96.9807666666667,10.8,12.3,78,992.65,-1.8,98,1.09,0.0,1020.83,270.0
2019-11-30 14:50,50.630455,-96.9807616666667,10.2,11.8,74,992.65,-1.9,98,1.10,0.0,1020.83,270.0
2019-11-30 15:00,50.6304566666667,-96.980765,10.2,12.7,72,992.62,-1.9,98,1.11,0.0,1020.80,311.7
2019-11-30 15:10,50.630455,-96.980765,10.2,12.2,67,992.65,-2.0,98,1.11,0.0,1020.84,311.7
2019-11-30 15:20,50.6304516666667,-96.9807883333333,9.7,11.3,66,992.65,-2.0,98,1.10,0.0,1020.84,311.7
2019-11-30 15:30,50.6304583333333,-96.980775,10.6,12.4,57,992.59,-2.1,97,1.10,0.0,1020.79,311.7
2019-11-30 15:40,50.630445,-96.9807616666667,10.6,12.3,60,992.52,-2.2,96,1.11,0.0,1020.72,311.7
2019-11-30 15:50,50.63045,-96.9807716666667,10.3,11.8,58,992.52,-2.1,96,1.12,0.0,1020.72,311.7
2019-11-30 16:00,50.63045,-96.9807783333333,11.5,13.2,51,992.38,-2.2,96,1.14,0.0,1020.58,270.0
2019-11-30 16:10,50.6304516666667,-96.9807733333333,11.2,13.1,47,992.37,-2.3,96,1.13,0.0,1020.57,270.0
2019-11-30 16:20,50.63045,-96.9807733333333,13.0,15.0,39,992.19,-2.4,96,1.10,0.0,1020.39,270.0
2019-11-30 16:30,50.6304516666667,-96.9807716666667,12.3,14.6,43,992.12,-2.4,95,1.09,0.0,1020.32,270.0
2019-11-30 16:40,50.6304516666667,-96.9807716666667,12.9,15.0,39,992.05,-2.4,96,1.11,0.0,1020.25,270.0
2019-11-30 16:50,50.6304516666667,-96.98077,14.2,16.4,34,991.93,-2.5,97,1.12,0.0,1020.13,270.0
2019-11-30 17:00,50.6304516666667,-96.98077,14.6,16.5,35,991.88,-2.6,96,1.13,0.0,1020.09,90.0
2019-11-30 17:10,50.6304466666667,-96.9807433333333,15.2,17.2,37,991.80,-2.6,95,1.13,0.0,1020.02,90.0
2019-11-30 17:20,50.63045,-96.9807633333333,13.6,15.6,40,991.77,-2.6,96,1.11,0.0,1020.00,90.0
2019-11-30 17:30,50.6304516666667,-96.9807733333333,13.8,15.9,39,991.68,-2.7,96,1.09,0.0,1019.90,90.0
2019-11-30 17:40,50.6304516666667,-96.9807716666667,14.9,16.6,33,991.56,-2.7,95,1.08,0.0,1019.78,90.0
2019-11-30 17:50,50.6304483333333,-96.9807883333333,15.1,16.9,31,991.45,-2.8,94,1.07,0.0,1019.68,90.0
2019-11-30 18:00,50.63045,-96.9807716666667,14.3,16.8,33,991.43,-2.8,94,1.08,0.0,1019.66,270.0
2019-11-30 18:10,50.63045,-96.98077,14.9,16.9,31,991.30,-2.7,93,1.08,0.0,1019.52,270.0
2019-11-30 18:20,50.63045,-96.9807666666667,15.7,17.8,31,991.14,-2.6,91,1.08,0.0,1019.36,270.0
2019-11-30 18:30,50.6304516666667,-96.9807633333333,15.8,17.9,28,990.99,-2.6,91,1.08,0.0,1019.20,270.0
2019-11-30 18:40,50.6304516666667,-96.9807666666667,17.0,19.2,28,990.73,-2.5,90,1.10,0.0,1018.94,270.0
2019-11-30 18:50,50.63045,-96.9807683333333,16.4,19.2,25,990.70,-2.2,87,1.11,0.0,1018.89,270.0
2019-11-30 19:00,50.6304533333333,-96.9807683333333,15.8,18.5,22,990.69,-2.0,87,1.12,0.0,1018.88,90.0
2019-11-30 19:10,50.6304316666667,-96.9807966666667,16.3,18.5,21,990.64,-2.1,87,1.08,0.0,1018.83,90.0
2019-11-30 19:20,50.6304433333333,-96.9807716666667,16.8,19.1,19,990.56,-2.0,86,1.05,0.0,1018.75,90.0
2019-11-30 19:30,50.630445,-96.9807733333333,17.2,18.9,15,990.52,-2.0,85,1.04,0.0,1018.71,90.0
2019-11-30 19:40,50.630445,-96.98077,16.1,18.2,16,990.51,-2.0,86,1.04,0.0,1018.69,90.0
2019-11-30 19:50,50.6304533333333,-96.9807583333333,15.7,18.4,16,990.52,-2.2,86,1.05,0.0,1018.72,90.0
2019-11-30 20:00,50.6304516666667,-96.9807616666667,15.8,18.0,18,990.49,-2.3,86,1.05,0.0,1018.69,90.0
2019-11-30 20:10,50.6304516666667,-96.9807633333333,15.9,18.7,11,990.48,-2.3,87,1.07,0.0,1018.67,90.0
2019-11-30 20:20,50.6304533333333,-96.980765,15.8,18.1,12,990.54,-2.1,86,1.07,0.0,1018.72,90.0
2019-11-30 20:30,50.6304533333333,-96.9807666666667,15.7,17.7,13,990.54,-2.0,86,1.07,0.0,1018.72,90.0
2019-11-30 20:40,50.6304533333333,-96.9807666666667,17.2,19.1,11,990.46,-2.2,86,1.08,0.0,1018.63,90.0
2019-11-30 20:50,50.6304516666667,-96.9807666666667,15.7,18.0,10,990.49,-2.2,87,1.08,0.0,1018.65,90.0
2019-11-30 21:00,50.6304516666667,-96.980765,14.8,17.6,6,990.46,-2.3,86,1.08,0.0,1018.62,90.0
2019-11-30 21:10,50.630445,-96.980755,14.9,17.3,8,990.41,-2.6,87,1.10,0.0,1018.59,90.0
2019-11-30 21:20,50.63045,-96.9807716666667,14.8,19.5,9,990.39,-2.6,87,1.11,0.0,1018.56,90.0
2019-11-30 21:30,50.63045,-96.9807633333333,14.7,17.1,5,990.43,-2.6,88,1.11,0.0,1018.60,90.0
2019-11-30 21:40,50.6304483333333,-96.980765,13.1,15.8,2,990.57,-2.8,90,1.10,0.0,1018.77,90.0
2019-11-30 21:50,50.63045,-96.9807666666667,13.3,15.8,359,990.57,-2.9,90,1.11,0.0,1018.78,90.0
2019-11-30 22:00,50.6304516666667,-96.9807683333333,12.6,15.3,358,990.55,-2.9,90,1.11,0.0,1018.75,90.0
2019-11-30 22:10,50.6304516666667,-96.98077,12.7,15.7,359,990.57,-2.8,89,1.10,0.0,1018.77,90.0
2019-11-30 22:20,50.6304516666667,-96.98077,12.9,15.5,359,990.62,-2.8,88,1.09,0.0,1018.82,90.0
2019-11-30 22:30,50.6304516666667,-96.98077,13.0,15.3,359,990.69,-2.8,87,1.09,0.0,1018.89,90.0
2019-11-30 22:40,50.6304533333333,-96.9807716666667,13.6,16.3,1,990.81,-2.8,86,1.10,0.0,1019.02,90.0
2019-11-30 22:50,50.6304533333333,-96.98077,13.6,16.4,2,990.87,-2.9,86,1.11,0.0,1019.09,90.0
2019-11-30 23:00,50.6304533333333,-96.9807716666667,13.1,15.7,0,990.93,-2.9,86,1.12,0.0,1019.17,270.0
2019-11-30 23:10,50.6304533333333,-96.9807716666667,13.1,15.6,358,990.88,-3.1,87,1.12,0.0,1019.13,270.0
2019-11-30 23:20,50.6304533333333,-96.9807716666667,13.2,15.9,1,990.89,-3.1,87,1.12,0.0,1019.14,270.0
2019-11-30 23:30,50.6304533333333,-96.9807716666667,14.1,16.8,2,990.85,-3.1,85,1.11,0.0,1019.11,270.0
2019-11-30 23:40,50.6304533333333,-96.98077,14.6,17.9,3,990.84,-3.1,84,1.11,0.0,1019.09,270.0
2019-11-30 23:50,50.6304533333333,-96.98077,13.8,17.0,3,990.90,-3.2,84,1.12,0.0,1019.17,270.0
